N1LTP Weather Reports


time (UTC)temp
C
wind
direction
speed
KPH
gust
KPH
rain 1hr
cm
rain 24hr
cm
rain mn
cm
humidity
%
barometer
mb
20260905211528 20 76 4.8 17.7 0.00 0.00 0.00 76 1010.1
20260905210028 20 80 8.0 16.1 0.00 0.00 0.00 75 1010.0
20260905204523 20 88 3.2 12.9 0.00 0.00 0.00 76 1010.0
20260905203020 20 94 3.2 14.5 0.00 0.00 0.00 74 1009.8
20260905201525 20 76 1.6 16.1 0.00 0.00 0.00 75 1009.6
20260905200018 21 116 3.2 17.7 0.00 0.00 0.00 74 1009.6
20260905194517 20 77 1.6 11.3 0.00 0.00 0.00 75 1009.5
20260905193017 20 281 0.0 12.9 0.00 0.00 0.00 76 1009.4
20260905191516 21 121 3.2 12.9 0.00 0.00 0.00 75 1009.5
20260905190015 21 108 3.2 11.3 0.00 0.00 0.00 75 1009.4
20260905184520 21 94 3.2 9.7 0.00 0.00 0.00 75 1009.4
20260905183014 21 98 3.2 9.7 0.00 0.00 0.00 75 1009.6
20260905181513 21 94 3.2 12.9 0.00 0.00 0.00 75 1009.7
20260905180012 21 98 1.6 19.3 0.00 0.00 0.00 76 1009.4
20260905174514 20 103 4.8 12.9 0.00 0.00 0.00 76 1009.4
20260905173023 20 89 3.2 8.0 0.00 0.00 0.00 76 1009.3
20260905171511 20 101 4.8 12.9 0.00 0.00 0.00 75 1009.3
20260905170007 21 152 3.2 11.3 0.00 0.00 0.00 74 1009.2
20260905164506 21 63 6.4 20.9 0.00 0.00 0.00 74 1009.2
20260905163004 21 95 4.8 17.7 0.00 0.00 0.00 75 1008.9
20260905161503 21 91 3.2 16.1 0.00 0.00 0.00 75 1008.9
20260905160003 21 113 6.4 12.9 0.00 0.00 0.00 73 1008.9
20260905154502 22 91 3.2 9.7 0.00 0.00 0.00 73 1008.9
20260905153002 22 110 3.2 12.9 0.00 0.00 0.00 72 1008.8
20260905151600 22 39 1.6 16.1 0.00 0.00 0.00 72 1008.6
20260905150056 21 155 1.6 14.5 0.00 0.00 0.00 74 1008.7
20260905144555 21 138 3.2 9.7 0.00 0.00 0.00 74 1008.7
20260905143054 21 296 4.8 9.7 0.00 0.00 0.00 75 1008.7
20260905141601 21 75 3.2 14.5 0.00 0.00 0.00 77 1008.6
20260905140050 20 209 0.0 6.4 0.00 0.00 0.00 78 1008.5
20260905134550 20 326 1.6 9.7 0.00 0.00 0.00 79 1008.8
20260905133043 20 265 0.0 6.4 0.00 0.00 0.00 80 1008.9
20260905131555 19 294 0.0 8.0 0.00 0.00 0.00 82 1008.7
20260905130038 18 259 1.6 8.0 0.00 0.00 0.00 83 1008.5
20260905124544 17 274 0.0 11.3 0.00 0.00 0.00 85 1008.5
20260905123029 17 294 1.6 9.7 0.00 0.00 0.00 88 1008.4
20260905121531 16 265 0.0 6.4 0.00 0.00 0.00 90 1008.3
20260905120029 16 273 0.0 4.8 0.00 0.00 0.00 91 1008.2
20260905114537 15 277 0.0 6.4 0.00 0.00 0.00 91 1008.1
20260905113024 15 302 0.0 4.8 0.00 0.00 0.00 92 1008.1
20260905111527 14 302 0.0 0.0 0.00 0.00 0.00 91 1008.1
20260905110022 14 302 0.0 1.6 0.00 0.00 0.00 91 1007.8
20260905104521 14 302 0.0 0.0 0.00 0.00 0.00 90 1007.7
20260905103029 13 302 0.0 0.0 0.00 0.00 0.00 90 1007.7
20260905101526 13 302 0.0 0.0 0.00 0.00 0.00 90 1007.6
20260905100020 13 302 0.0 0.0 0.00 0.00 0.00 89 1007.6
20260905094519 13 302 0.0 0.0 0.00 0.00 0.00 89 1007.6
20260905093018 14 302 0.0 0.0 0.00 0.00 0.00 89 1007.5
20260905091518 14 302 0.0 0.0 0.00 0.00 0.00 89 1007.5
20260905090016 14 302 0.0 0.0 0.00 0.00 0.00 89 1007.6
20260905084544 14 302 0.0 0.0 0.00 0.00 0.00 89 1007.5
20260905083019 14 302 0.0 0.0 0.00 0.00 0.00 89 1007.5
20260905081512 15 302 0.0 0.0 0.00 0.00 0.00 89 1007.5
20260905080011 15 302 0.0 0.0 0.00 0.00 0.00 89 1007.5
20260905074511 15 302 0.0 0.0 0.00 0.00 0.00 89 1007.5
20260905073015 15 302 0.0 0.0 0.00 0.00 0.00 89 1007.6
20260905071508 15 302 0.0 0.0 0.00 0.00 0.00 88 1007.5
20260905070006 15 302 0.0 0.0 0.00 0.00 0.00 88 1007.6
20260905064504 15 302 0.0 0.0 0.00 0.00 0.00 88 1007.9
20260905063003 15 302 0.0 0.0 0.00 0.00 0.00 88 1008.0
20260905061502 15 302 0.0 0.0 0.00 0.00 0.00 88 1008.1
20260905060002 15 302 0.0 0.0 0.00 0.00 0.00 88 1008.1
20260905054604 15 302 0.0 0.0 0.00 0.00 0.00 88 1008.1
20260905053111 15 302 0.0 0.0 0.00 0.00 0.00 88 1008.1
20260905051557 16 302 0.0 0.0 0.00 0.00 0.00 88 1008.2
20260905050056 16 302 0.0 1.6 0.00 0.00 0.00 88 1008.3
20260905044554 16 302 0.0 0.0 0.00 0.00 0.00 87 1008.2
20260905043055 16 302 0.0 0.0 0.00 0.00 0.00 87 1008.2
20260905041551 16 302 0.0 0.0 0.00 0.00 0.00 86 1008.2
20260905040048 16 302 0.0 0.0 0.00 0.00 0.00 86 1008.2
20260905034550 17 302 0.0 0.0 0.00 0.00 0.00 86 1008.1
20260905033045 17 302 0.0 0.0 0.00 0.00 0.00 85 1008.1
20260905031547 17 302 0.0 0.0 0.00 0.00 0.00 85 1008.0
20260905030042 17 302 0.0 0.0 0.00 0.00 0.00 84 1008.0
20260905024603 17 302 0.0 0.0 0.00 0.00 0.00 84 1008.0
20260905023044 18 302 0.0 0.0 0.00 0.00 0.00 83 1008.1
20260905021543 18 302 0.0 0.0 0.00 0.00 0.00 82 1008.0
20260905020048 18 302 0.0 0.0 0.00 0.00 0.00 82 1008.2
20260905014539 19 302 0.0 0.0 0.00 0.00 0.00 81 1008.5
20260905013039 19 302 0.0 0.0 0.00 0.00 0.00 81 1008.4
20260905011549 20 302 0.0 0.0 0.00 0.00 0.00 80 1008.5
20260905010038 20 302 0.0 0.0 0.00 0.00 0.00 79 1008.5
20260905004548 20 302 0.0 0.0 0.00 0.00 0.00 78 1008.4
20260905003037 21 302 0.0 1.6 0.00 0.00 0.00 77 1008.3
20260905001537 21 302 0.0 0.0 0.00 0.00 0.00 76 1008.2
20260905000036 22 302 0.0 0.0 0.00 0.00 0.00 75 1008.0
20260904234545 22 302 0.0 0.0 0.00 0.00 0.00 73 1007.9
20260904233052 23 302 0.0 3.2 0.00 0.00 0.00 71 1007.7
20260904231534 23 311 1.6 4.8 0.00 0.00 0.00 70 1007.6
20260904230034 23 321 3.2 6.4 0.00 0.00 0.00 69 1007.4
20260904224541 24 304 1.6 4.8 0.00 0.00 0.00 69 1007.5
20260904223040 25 305 0.0 4.8 0.00 0.00 0.00 67 1007.4
20260904221532 25 306 0.0 3.2 0.00 0.00 0.00 66 1007.3
20260904220034 25 306 1.6 8.0 0.00 0.00 0.00 62 1007.3
20260904214540 25 300 1.6 14.5 0.00 0.00 0.00 61 1007.3
20260904213029 26 300 1.6 6.4 0.00 0.00 0.00 61 1007.3